Weather History for Hickory, NC

Change the Weather History Date:

Tuesday, January 15, 2013

  Actual Average Record
Temperature  
Mean Temperature 49 °F -  
Max Temperature 57 °F 47 °F 73 °F (1952)
Min Temperature 41 °F 26 °F 12 °F (1964)
Degree Days  
Heating Degree Days 16    
Moisture  
Dew Point 45 °F    
Average Humidity 93    
Maximum Humidity 100    
Minimum Humidity 87    
Precipitation  
Precipitation 0.60 in - - ()
Sea Level Pressure  
Sea Level Pressure 30.12 in    
Wind  
Wind Speed 7 mph (NE)    
Max Wind Speed 10 mph    
Max Gust Speed 17 mph    
Visibility 5 miles    
Events Rain    
Averages and records for this station are not official NWS values.
T = Trace of Precipitation, MM = Missing Value Source: NWS Daily Summary

Daily Weather History Graph

Daily Weather History Graph

Search for Another Location

Airport:

Trip Planner

Search our weather history database for the weather conditions in past years. The results will help you decide how hot, cold, wet, or windy it might be!

Date:

Astronomy

Jan. 15, 2013 Rise Set
Actual Time 7:34 AM EST 5:35 PM EST
Civil Twilight 7:06 AM EST 6:03 PM EST
Nautical Twilight 6:35 AM EST 6:34 PM EST
Astronomical Twilight 6:04 AM EST 7:05 PM EST
Moon 9:49 AM EST (1/15) 10:12 PM EST (1/15)
Length of Visible Light 10h 56m
Length of Day
10h 01m
Waxing Crescent, 19% of the Moon is Illuminated
Jan 15
Waxing Crescent
Jan 18
First Quarter
Jan 26
Full
Feb 3
Last Quarter
Feb 10
New

Hourly Weather History & Observations

Time (EST) Temp. Windchill Dew Point Humidity Pressure Visibility Wind Dir Wind Speed Gust Speed Precip Events Conditions
12:04 AM 57.2 °F - 55.4 °F 94% 30.14 in 4.0 mi NW 4.6 mph - 0.01 in Rain Light Rain
12:37 AM 55.4 °F - 53.6 °F 94% 30.13 in 10.0 mi NNE 5.8 mph - 0.01 in   Overcast
12:53 AM 55.0 °F - 53.1 °F 93% 30.08 in 10.0 mi NE 9.2 mph - 0.01 in   Overcast
1:27 AM 55.4 °F - 53.6 °F 94% 30.12 in 10.0 mi East 8.1 mph - 0.01 in   Overcast
1:45 AM 55.4 °F - 53.6 °F 94% 30.13 in 10.0 mi East 4.6 mph - 0.01 in   Overcast
1:53 AM 55.0 °F - 53.1 °F 93% 30.09 in 10.0 mi East 5.8 mph - 0.01 in Rain Light Rain
2:02 AM 53.6 °F - 51.8 °F 94% 30.14 in 10.0 mi ENE 10.4 mph - 0.00 in Rain Light Rain
2:53 AM 52.0 °F - 50.0 °F 93% 30.10 in 3.0 mi NE 9.2 mph - 0.01 in Rain Light Rain
3:05 AM 51.8 °F - 50.0 °F 94% 30.13 in 2.5 mi ENE 9.2 mph - 0.01 in Rain Light Rain
3:13 AM 51.8 °F - 50.0 °F 94% 30.13 in 4.0 mi ENE 8.1 mph - 0.02 in Rain Light Rain
3:37 AM 51.8 °F - 50.0 °F 94% 30.14 in 2.5 mi NE 5.8 mph - 0.04 in Rain Light Rain
3:53 AM 51.1 °F - 50.0 °F 96% 30.09 in 2.5 mi NE 5.8 mph - 0.05 in Rain Rain
4:01 AM 51.8 °F - 48.2 °F 88% 30.12 in 3.0 mi NE 6.9 mph - 0.01 in Rain Light Rain
4:29 AM 51.8 °F - 48.2 °F 88% 30.12 in 5.0 mi NE 8.1 mph - 0.02 in Rain Light Rain
4:50 AM 50.0 °F - 48.2 °F 94% 30.12 in 2.5 mi NE 6.9 mph - 0.03 in Rain Light Rain
4:53 AM 50.0 °F - 48.0 °F 93% 30.09 in 2.5 mi NE 6.9 mph - 0.03 in Rain Light Rain
4:58 AM 50.0 °F - 48.2 °F 94% 30.12 in 3.0 mi NNE 5.8 mph - 0.00 in Rain Light Rain
5:15 AM 48.2 °F - 48.2 °F 100% 30.11 in 2.5 mi NE 5.8 mph - 0.02 in Rain Light Rain
5:29 AM 48.2 °F - 46.4 °F 93% 30.11 in 3.0 mi NE 8.1 mph - 0.03 in Rain Light Rain
5:53 AM 48.9 °F - 46.9 °F 93% 30.08 in 4.0 mi ENE 8.1 mph 17.3 mph 0.03 in Rain Light Rain
6:53 AM 48.0 °F - 46.9 °F 96% 30.10 in 4.0 mi North 10.4 mph - 0.01 in Rain Light Rain
7:12 AM 48.2 °F - 46.4 °F 93% 30.16 in 3.0 mi NNE 4.6 mph - 0.01 in Rain Light Rain
7:17 AM 48.2 °F - 46.4 °F 93% 30.16 in 2.5 mi NE 4.6 mph - 0.02 in Rain Light Rain
7:36 AM 48.2 °F - 46.4 °F 93% 30.16 in 3.0 mi NE 5.8 mph - 0.03 in Rain Light Rain
7:40 AM 48.2 °F - 46.4 °F 93% 30.16 in 4.0 mi NE 4.6 mph - 0.03 in Rain Light Rain
7:53 AM 48.0 °F - 46.9 °F 96% 30.12 in 5.0 mi NE 4.6 mph - 0.04 in Rain Light Rain
8:28 AM 46.4 °F 41.9 °F 44.6 °F 93% 30.17 in 10.0 mi ENE 9.2 mph - 0.01 in Rain Light Rain
8:53 AM 46.9 °F - 45.0 °F 93% 30.15 in 4.0 mi NE 8.1 mph - 0.03 in Rain Rain
9:13 AM 46.4 °F 42.4 °F 44.6 °F 93% 30.18 in 7.0 mi ENE 8.1 mph - 0.02 in Rain Light Rain
9:26 AM 46.4 °F 42.9 °F 44.6 °F 93% 30.18 in 8.0 mi ENE 6.9 mph - 0.03 in Rain Light Rain
9:41 AM 46.4 °F 42.4 °F 44.6 °F 93% 30.18 in 10.0 mi ENE 8.1 mph - 0.03 in Rain Light Rain
9:53 AM 48.0 °F - 45.0 °F 89% 30.14 in 10.0 mi ENE 6.9 mph - 0.03 in Rain Light Rain
10:53 AM 46.9 °F - 44.1 °F 90% 30.14 in 10.0 mi NE 9.2 mph - 0.01 in Rain Light Rain
11:32 AM 46.4 °F 42.9 °F 44.6 °F 93% 30.18 in 3.0 mi ENE 6.9 mph - 0.03 in Rain Rain
11:34 AM 46.4 °F 43.5 °F 44.6 °F 93% 30.17 in 2.5 mi ENE 5.8 mph - 0.03 in Rain Rain
11:53 AM 46.0 °F 43.9 °F 44.1 °F 93% 30.13 in 4.0 mi ENE 4.6 mph - 0.05 in Rain Light Rain
12:53 PM 46.0 °F 43.9 °F 43.0 °F 89% 30.11 in 10.0 mi NE 4.6 mph - 0.02 in Rain Light Rain
1:53 PM 45.0 °F 41.2 °F 43.0 °F 93% 30.09 in 3.0 mi NE 6.9 mph - 0.02 in Rain Rain
2:53 PM 44.1 °F 38.6 °F 42.1 °F 93% 30.09 in 4.0 mi ENE 10.4 mph - 0.04 in Rain Light Rain
3:53 PM 44.1 °F 40.1 °F 41.0 °F 89% 30.09 in 10.0 mi ENE 6.9 mph - 0.02 in Rain Light Rain
4:43 PM 42.8 °F 37.5 °F 41.0 °F 93% 30.12 in 2.5 mi ENE 9.2 mph - 0.03 in Rain Rain
4:53 PM 43.0 °F 37.7 °F 41.0 °F 93% 30.10 in 2.0 mi NE 9.2 mph - 0.04 in Rain Light Rain
5:20 PM 42.8 °F 38.6 °F 41.0 °F 93% 30.12 in 2.0 mi NNE 6.9 mph - 0.01 in Rain Light Rain
5:28 PM 42.8 °F 38.0 °F 41.0 °F 93% 30.12 in 2.0 mi ENE 8.1 mph - 0.01 in Rain Light Rain
5:33 PM 42.8 °F 40.1 °F 41.0 °F 93% 30.12 in 2.0 mi ENE 4.6 mph - 0.02 in Rain Light Rain
5:53 PM 42.1 °F 37.1 °F 39.9 °F 92% 30.10 in 2.0 mi ENE 8.1 mph - 0.03 in Rain Light Rain
6:03 PM 42.8 °F 38.6 °F 39.2 °F 87% 30.11 in 3.0 mi ENE 6.9 mph - 0.00 in Rain Light Rain
6:49 PM 42.8 °F 38.6 °F 39.2 °F 87% 30.14 in 3.0 mi NE 6.9 mph - 0.02 in Rain Light Rain
6:53 PM 42.1 °F 38.4 °F 39.9 °F 92% 30.12 in 3.0 mi NE 5.8 mph - 0.02 in Rain Light Rain
7:02 PM 42.8 °F 38.6 °F 39.2 °F 87% 30.14 in 7.0 mi NE 6.9 mph - 0.00 in Rain Light Rain
7:13 PM 42.8 °F 38.6 °F 39.2 °F 87% 30.12 in 8.0 mi ENE 6.9 mph - 0.01 in Rain Light Rain
7:26 PM 42.8 °F 38.0 °F 39.2 °F 87% 30.12 in 5.0 mi ENE 8.1 mph - 0.01 in Rain Light Rain
7:48 PM 41.0 °F 37.1 °F 39.2 °F 93% 30.12 in 9.0 mi NE 5.8 mph - 0.01 in Rain Light Rain
7:53 PM 42.1 °F 37.7 °F 39.9 °F 92% 30.10 in 8.0 mi NE 6.9 mph - 0.02 in Rain Light Rain
8:16 PM 41.0 °F 37.1 °F 39.2 °F 93% 30.11 in 4.0 mi NE 5.8 mph - 0.01 in Rain Light Rain
8:53 PM 42.1 °F 37.7 °F 39.9 °F 92% 30.07 in 5.0 mi NE 6.9 mph - 0.03 in Rain Light Rain
9:33 PM 41.0 °F 38.0 °F 39.2 °F 93% 30.08 in 10.0 mi NE 4.6 mph - 0.00 in   Overcast
9:53 PM 41.0 °F 38.0 °F 39.9 °F 96% 30.06 in 10.0 mi NE 4.6 mph - 0.00 in   Overcast
10:43 PM 41.0 °F 39.0 °F 39.2 °F 93% 30.08 in 5.0 mi NE 3.5 mph - 0.02 in Rain Light Rain
10:53 PM 41.0 °F 39.0 °F 39.9 °F 96% 30.07 in 6.0 mi North 3.5 mph - 0.02 in Rain Light Rain
11:09 PM 41.0 °F 39.0 °F 39.2 °F 93% 30.08 in 5.0 mi NNE 3.5 mph - 0.01 in Rain Light Rain
11:16 PM 41.0 °F 39.0 °F 39.2 °F 93% 30.08 in 7.0 mi NE 3.5 mph - 0.01 in Rain Light Rain
11:27 PM 41.0 °F 37.1 °F 39.2 °F 93% 30.06 in 4.0 mi ENE 5.8 mph - 0.02 in Rain Rain
11:53 PM 41.0 °F 39.0 °F 39.9 °F 96% 30.05 in 4.0 mi NE 3.5 mph - 0.03 in Rain Light Rain